This demonstration page uses our WeatherBlox Daily Observations layout. Learn more.

Left ArrowRight Arrow

Hourly Observations for March 7, 2018

Temp ( °F °C ) Dew Point ( °F °C ) Humidity (%) Winds ( mph kmh ) Pressure ( in mb ) Visibility ( mi km ) Precip ( " mm )
12:53 am 00:53 Clear 47 8.3 35 1.7 63 63 N 5 7 30.06 1018 10 16 0.00 0.00
1:53 am 01:53 Clear 46 7.8 35 1.7 66 66 NNW 3 6 30.05 1018 10 16 0.00 0.00
2:53 am 02:53 Clear 43 6.1 37 2.8 80 80 N 3 6 30.04 1017 10 16 0.00 0.00
3:53 am 03:53 Clear 43 6.1 36 2.2 76 76 Calm 30.03 1017 10 16 0.00 0.00
4:53 am 04:53 Clear 42 5.6 35 1.7 76 76 WNW 3 6 30.03 1017 10 16 0.00 0.00
5:53 am 05:53 Clear 42 5.6 35 1.7 76 76 NW 5 7 30.04 1017 10 16 0.00 0.00
6:53 am 06:53 Sunny 41 5 37 2.8 86 86 ESE 5 7 30.04 1017 10 16 0.00 0.00
7:53 am 07:53 Sunny 44 6.7 37 2.8 76 76 W 6 9 30.04 1017 10 16 0.00 0.00
8:53 am 08:53 Sunny 46 7.8 39 3.9 77 77 Calm 30.04 1017 10 16 0.00 0.00
9:53 am 09:53 Sunny 53 11.7 39 3.9 59 59 NW 3 6 30.04 1017 10 16 0.00 0.00
10:53 am 10:53 Sunny 58 14.4 38 3.3 48 48 Calm 30.02 1017 10 16 0.00 0.00
11:53 am 11:53 Sunny 61 16.1 37 2.8 41 41 Calm 29.99 1016 10 16 0.00 0.00
12:53 pm 12:53 Sunny 64 17.8 30 -1.1 28 28 Calm 29.97 1015 10 16 0.00 0.00
1:53 pm 13:53 Sunny 65 18.3 35 1.7 33 33 S 5 7 29.96 1014 10 16 0.00 0.00
2:53 pm 14:53 Partly Cloudy 65 18.3 35 1.7 33 33 SSE 10 17 29.94 1014 10 16 0.00 0.00
3:53 pm 15:53 Cloudy 65 18.3 38 3.3 37 37 S 9 15 29.92 1013 10 16 0.00 0.00
4:53 pm 16:53 Cloudy 65 18.3 37 2.8 36 36 S 12 19 29.90 1013 10 16 0.00 0.00
5:53 pm 17:53 Partly Cloudy 63 17.2 37 2.8 38 38 SSW 8 13 29.90 1013 10 16 0.00 0.00
6:53 pm 18:53 Cloudy 61 16.1 40 4.4 46 46 S 9 15 29.91 1013 10 16 0.00 0.00
7:53 pm 19:53 Cloudy 61 16.1 40 4.4 46 46 S 7 11 29.91 1013 10 16 0.00 0.00
8:53 pm 20:53 Cloudy with Light Rain 57 13.9 44 6.7 62 62 S 13 20 29.96 1015 7 11 0.02 0.51
9:53 pm 21:53 Mostly Cloudy 53 11.7 46 7.8 77 77 ENE 3 6 29.96 1015 10 16 0.02 0.51
10:53 pm 22:53 Cloudy 54 12.2 47 8.3 77 77 NE 3 6 29.97 1015 10 16 0.00 0.00
11:53 pm 23:53 Cloudy 54 12.2 48 8.9 80 80 ESE 6 9 29.98 1015 10 16 0.00 0.00

Powered by AerisWeather